This is the latest recevied weather packets stored in our database for station/object S56VIL-11. If no packets are shown the sender has not sent any weather packets the latest 10 day(s).
| Time | Temp. | Humidity | Pressure | Rain* | Wind** | Luminosity | Snow |
|---|---|---|---|---|---|---|---|
| 1788431143 | 31.11° C | 55% | 1033.9 hPa | - | - | - | - |
| 1788430235 | 31.11° C | 55% | 1034 hPa | - | - | - | - |
| 1788429343 | 31.11° C | 55% | 1034.2 hPa | - | - | - | - |
| 1788428435 | 31.11° C | 55% | 1034.4 hPa | - | - | - | - |
| 1788427537 | 30.56° C | 55% | 1034.4 hPa | - | - | - | - |
| 1788426632 | 30.56° C | 55% | 1034.4 hPa | - | - | - | - |
| 1788425735 | 31.11° C | 55% | 1034.5 hPa | - | - | - | - |
| 1788424832 | 30.56° C | 55% | 1034.4 hPa | - | - | - | - |
| 1788423933 | 28.33° C | 56% | 1034.4 hPa | - | - | - | - |
| 1788423032 | 23.89° C | 57% | 1034.4 hPa | - | - | - | - |
| 1788422132 | 22.22° C | 58% | 1034.5 hPa | - | - | - | - |
| 1788421232 | 21.67° C | 58% | 1034.4 hPa | - | - | - | - |
| 1788420332 | 21.11° C | 58% | 1034.3 hPa | - | - | - | - |
| 1788419432 | 21.11° C | 58% | 1034.3 hPa | - | - | - | - |
| 1788418532 | 21.11° C | 58% | 1034.3 hPa | - | - | - | - |
| 1788417632 | 20.56° C | 58% | 1034.2 hPa | - | - | - | - |
| 1788416732 | 20.56° C | 58% | 1034.2 hPa | - | - | - | - |
| 1788415832 | 21.11° C | 58% | 1033.9 hPa | - | - | - | - |
| 1788414932 | 19.44° C | 58% | 1033.8 hPa | - | - | - | - |
| 1788414031 | 19.44° C | 58% | 1033.7 hPa | - | - | - | - |
| 1788413131 | 19.44° C | 58% | 1033.5 hPa | - | - | - | - |
| 1788412231 | 19.44° C | 58% | 1033.5 hPa | - | - | - | - |
| 1788411331 | 18.89° C | 58% | 1033.4 hPa | - | - | - | - |
| 1788410431 | 19.44° C | 58% | 1033.3 hPa | - | - | - | - |
| 1788409531 | 18.89° C | 58% | 1033.3 hPa | - | - | - | - |
* Rain since midnight (hover to see other rain measurements)
** Current wind speed in m/s (hover to see current wind gust speed)